Home   Weather   Inuvik   Past weeks

Flag for Canada Past Weather in Inuvik, Northwest Territories, Canada — Yesterday and Last 2 Weeks

Now
30 °F

Passing clouds.


Feels Like: 30 °F
Forecast: 14 / 28 °F
Wind: 2 mph from Northeast

Location: Inuvik

Current Time: Apr 29, 2017 at 3:36:56 pm

Latest Report: Apr 29, 2017 at 3:00 pm


Visibility: 15 mi

Pressure: 30.16 "Hg

Humidity: 55%

Dew Point: 16 °F

Location of InuvikLocation

Past Weather in Inuvik — Graph

°F

Inuvik Temperature Yesterday

Maximum temperature yesterday: 27 °F (at 4:00 pm)
Minimum temperature yesterday: 14 °F (at 12:00 am)
Average temperature yesterday: 20 °F

High & Low Weather Summary for the Past Weeks

 TemperatureHumidityPressure
High30 °F (Apr 23, 7:00 pm)92% (Apr 16, 12:00 am)30.76 "Hg (Apr 16, 12:00 am)
Low-9 °F (Apr 15, 7:00 am)33% (Apr 22, 3:00 pm)29.94 "Hg (Apr 24, 3:00 am)
Average10 °F68%30.31 "Hg
* Reported Apr 14 1:00 pm — Apr 29 1:00 pm, Inuvik, Weather by CustomWeather, © 2017

Note: Actual official high and low records may vary slightly from our data, if they occured in-between our weather recording intervals... More about our weather records

Advertising

Inuvik Weather History for the Previous 24 Hours

Scroll right to see more
 ConditionsComfort  
Time TempWeatherWind HumidityBarometerVisibility
1:00 pm
Sat, Apr 29
28 °FPartly sunny.3 mph59%30.17 "Hg15 mi
12:00 pm27 °FPartly sunny.5 mph64%30.18 "Hg15 mi
11:00 am25 °FPartly sunny.5 mph69%30.18 "Hg15 mi
10:00 am23 °FBroken clouds.5 mph68%30.19 "Hg15 mi
9:00 am21 °FPartly sunny.6 mph74%30.19 "Hg15 mi
8:00 am19 °FScattered clouds.5 mph73%30.19 "Hg15 mi
7:00 am19 °FPassing clouds.6 mph73%30.19 "Hg15 mi
6:00 am19 °FPassing clouds.6 mph73%30.19 "Hg15 mi
5:00 am21 °FPassing clouds.6 mph68%30.20 "Hg15 mi
4:00 am21 °FPassing clouds.6 mph68%30.19 "Hg15 mi
3:00 am21 °FPassing clouds.6 mph68%30.20 "Hg15 mi
2:00 am21 °FPassing clouds.6 mph68%30.19 "Hg15 mi
1:00 am21 °FPartly sunny.5 mph68%30.20 "Hg15 mi
12:00 am21 °FPartly sunny.7 mph68%30.19 "Hg15 mi
11:00 pm
Fri, Apr 28
23 °FPartly sunny.10 mph63%30.19 "Hg15 mi
10:00 pm25 °FPartly sunny.9 mph54%30.20 "Hg15 mi
9:00 pm25 °FPartly sunny.9 mph50%30.20 "Hg15 mi
8:00 pm25 °FBroken clouds.8 mph54%30.20 "Hg15 mi
7:00 pm27 °FPartly sunny.7 mph50%30.20 "Hg14 mi
6:00 pm27 °FPartly sunny.7 mph50%30.20 "Hg15 mi
5:00 pm27 °FPartly sunny.5 mph46%30.20 "Hg15 mi
4:00 pm27 °FScattered clouds.5 mph46%30.21 "Hg15 mi
3:00 pm25 °FScattered clouds.2 mph46%30.20 "Hg15 mi
Weather by CustomWeather, © 2017

See weather overviewHow to use our weather pages